HB9UQS-13 Weather Reports


Display with metric or nautical units.
time (UTC)temp
F
wind
direction
speed
MPH
gust
MPH
rain 1hr
in
rain 24hr
in
rain mn
in
humidity
%
barometer
mb
20260502164341 69 282 2.0 4.0 0.00 0.00 0.00 50 932.6
20260502161341 69 311 3.0 4.0 0.00 0.00 0.00 45 932.9
20260502151341 70 290 3.0 7.0 0.00 0.00 0.00 47 933.3
20260502121341 68 241 4.0 8.0 0.00 0.00 0.00 50 935.2
20260502114341 68 287 3.0 6.0 0.00 0.00 0.00 52 935.5
20260502111340 68 242 3.0 6.0 0.00 0.00 0.00 54 935.8
20260502104341 72 214 1.0 2.0 0.00 0.00 0.00 48 936.2
20260502101341 66 314 1.0 3.0 0.00 0.00 0.00 58 936.6
20260502091341 63 304 2.0 5.0 0.00 0.00 0.00 62 937.1
20260502071340 58 299 2.0 4.0 0.00 0.00 0.00 71 937.6
20260502064341 58 293 4.0 8.0 0.00 0.00 0.00 72 937.6
20260502061341 53 189 0.0 1.0 0.00 0.00 0.00 78 937.4
20260502054341 50 232 0.0 0.0 0.00 0.00 0.00 84 937.4
20260502051341 48 268 1.0 2.0 0.00 0.00 0.00 87 937.2
20260502044341 49 126 2.0 3.0 0.00 0.00 0.00 85 937.2
20260502041341 46 289 1.0 2.0 0.00 0.00 0.00 91 937.2
20260502034341 44 184 1.0 2.0 0.00 0.00 0.00 87 937.2
20260502031340 45 117 1.0 3.0 0.00 0.00 0.00 87 937.3
20260502024341 44 188 0.0 2.0 0.00 0.00 0.00 85 937.4
20260502021340 43 220 0.0 1.0 0.00 0.00 0.00 86 937.4
20260502014341 42 115 0.0 1.0 0.00 0.00 0.00 87 937.4
20260502011341 44 113 0.0 0.0 0.00 0.00 0.00 84 937.5